Regional Weather Roundup
Issued by NWS Kansas City/Pleasant Hill, MO

Home | Current Version | Previous Version | Text Only | Print | Product List | Glossary On
Versions: 1 2 3 4 5 6 7 8 9 10 11 12 13 14 15 16 17 18 19 20 21 22 23 24 25 26 27 28 29 30 31 32 33 34 35 36 37 38 39 40 41 42 43 44 45 46 47 48 49 50
000
ASUS43 KEAX 230410
RWREAX

WEATHER ROUNDUP FOR EASTERN KANSAS AND NORTHWEST MISSOURI
NATIONAL WEATHER SERVICE KANSAS CITY/PLEASANT HILL MO
1000 PM CST MON DEC 22 2014

KSZ040-057-103>105-MOZ028-029-037-043-230500-
...KANSAS CITY METROPOLITAN AREA...

CITY           SKY/WX    TMP DP  RH WIND       PRES   REMARKS
K.C. INTL      PTCLDY    40  37  89 W7        29.52R
K.C. DOWNTOWN  CLEAR     44  38  79 SW8       29.52R
LEES SUMMIT    CLEAR     41  37  86 SW8       29.54R
OLATHE - IXD   CLEAR     39  37  92 SW9       29.55R WCI  33
OLATHE - OJC   CLEAR     41  38  89 SW8       29.54R
LAWRENCE       CLEAR     40  36  86 W10       29.55R WCI  33

$$

MOZ001>008-011>017-020>025-030>033-038>040-044>046-053-054-230500-
...NORTHERN AND CENTRAL MISSOURI...

CITY           SKY/WX    TMP DP  RH WIND       PRES   REMARKS
ST. JOSEPH     PTCLDY    41  36  82 W12       29.50R WCI  34
MOSBY          PTCLDY    43  37  81 SW6       29.51S
WARRENSBURG    CLOUDY    43  37  81 SW12      29.54S
WHITEMAN AFB   CLOUDY    43  40  89 SW9       29.53S
CLINTON        MOCLDY    43  43 100 SW8       29.57R
SEDALIA        CLEAR     44  40  85 SW9       29.54R
WARSAW         NOT AVBL
MARSHALL       CLOUDY    46  43  87 SW8       29.52S
CHILLICOTHE      N/A     44  39  82 VRB7      29.48S
MOBERLY        CLOUDY    45  41  87 SW14      29.49
KIRKSVILLE     CLOUDY    45  44  97 SW8       29.45S

$$

MOZ041-047>049-056>058-063>065-088>090-097-230500-
...EASTERN AND SOUTHERN MISSOURI...

CITY           SKY/WX    TMP DP  RH WIND       PRES   REMARKS
ST. LOUIS INTL CLOUDY    51  48  89 S9        29.53S
SPIRIT OF STL  LGT RAIN  50  48  93 VRB3      29.52S
COLUMBIA       CLOUDY    47  45  93 W13       29.52R
JEFFERSON CITY CLOUDY    48  45  89 W8        29.53S
MEXICO         CLOUDY   N/A N/A N/A SW10      29.50R
HANNIBAL       CLOUDY    48  46  93 S8        29.48R
ROLLA          CLOUDY    47  45  93 SW9       29.54R
LEBANON        MOCLDY    45  43  93 W10       29.59R
OSAGE BEACH    MOCLDY    46  39  76 W9        29.57R
SPRINGFIELD    CLEAR     42  39  89 W7        29.60R
BRANSON        MOCLDY    45  43  93 CALM      29.63R
NEVADA         CLEAR     41  37  87 SW7       29.60F
JOPLIN         CLEAR     40  37  89 SW6       29.63S
WEST PLAINS    CLOUDY    49  46  90 W9        29.60R

$$

IAZ060-094-KSZ022-034>040-054-083-096-NEZ052-066-093-230500-
...KANSAS...SOUTHEAST NEBRASKA AND IOWA...

CITY           SKY/WX    TMP DP  RH WIND       PRES   REMARKS
TOPEKA         CLEAR     43  35  73 SW6       29.55S
MANHATTAN      CLOUDY    40  33  76 W6        29.57R
EMPORIA        CLEAR     36  33  89 SW10      29.59R WCI  28
CHANUTE        CLEAR     39  37  92 SW9       29.62S WCI  33
WICHITA        PTCLDY    43  32  65 W12       29.64R
OMAHA          LGT RAIN  38  36  92 NW12      29.46F WCI  30
LINCOLN        CLOUDY    40  34  79 W12       29.50S WCI  33
FALLS CITY     PTCLDY    38  34  85 W12       29.49S WCI  30
LAMONI         CLOUDY    41  40  96 W13       29.41S WCI  34
DES MOINES     DRIZZLE   40  37  89 E7        29.44F FOG

$$



USA.gov is the U.S. government's official web portal to all federal, state and local government web resources and services.